THOR ABLESTAR DEB, 463

Orbit data source: Space-Track

THOR ABLESTAR DEB, 463 is space debris in LEO originally from a launch on Thu, 29 Jun 1961 UTC launched from the Air Force Eastern Test Range (AFETR). Debris objects in space refer to the collection of defunct objects orbiting the Earth. Examples of debris include non-operational satellites, rocket bodies, and fragments generated from explosions, collisions, or faulty payload assembly.

Loading next visibility...
Identifier
463, 1961-015EZ
Orbit
LEO
Country
Flag of USUS
Related business
Manufacturer
Unknown
Mission
Spacecraft
Bus & Motor
Unknown
Mass
Unknown
Launch date (UTC)
1961-06-29 (64 years ago)
Launch vehicle
Unknown
Launch site
Air Force Eastern Test Range (AFETR)
Object type
Payload
Rocket body
Debris
Shape & HBR
Unknown shape, 0.1 m
Radar Cross Section
Small (<0.1 m²)

Expand to show TLE details & history
Last TLE update: 11 hours ago

TLE from 11 hours ago
0 THOR ABLESTAR DEB
1 00463U 61015EZ  25305.40007219  .00003732  00000-0  86642-3 0  9998
2 00463  66.7672 309.1617 0037064  68.9672 291.5398 14.55668281335952
Epoch: 2025-11-01T09:36Z
TLE epoch observation values (Epoch: 2025-11-01T09:36:06.237Z)
Latitude
0.00003°
Longitude
124.20503°
Altitude
699.774 km
Speed
7.512 km/s
True Right ascension
20h 36m 38s
True Declination
0° 00' 00"
Sunlit
Object was in daylight at epoch
Visualization orbit readout
Latitude
Unknown
Longitude
Unknown
Altitude
Unknown
Speed
Unknown
Apparent Right ascension
Unknown
Apparent Declination
Unknown
Sunlit
N/A
Visualization observer readout
Local Sidereal Time
16:42:38
Azimuth
Unknown
Elevation
Unknown
Doppler factor
Unknown
Orbital elements
Apogee altitude
731.798 km
Perigee altitude
679.288 km
Semi-major axis
7,083.68 km
Eccentricity
0.00371
Inclination
66.7672°
RAAN
309.1617°
Arg. of periapsis
68.9672°
True anomaly
291.14407°
Mean anomaly
291.5398°
Eccentric anomaly
291.342°
Mean motion
3.64045 °/min
Orbital period
98.89 mins
BSTAR
0.00086642
Loading maneuver chart data...
Computing Atmospheric mass density...

Documentation

Showing up to 5 results
|